Regional Weather Roundup
Issued by NWS Nashville, TN

Home | Current Version | Previous Version | Text Only | Print | Product List | Glossary On
Versions: 1 2 3 4 5 6 7 8 9 10 11 12 13 14 15 16 17 18 19 20 21 22 23 24 25 26 27 28 29 30 31 32 33 34 35 36 37 38 39 40 41 42 43 44 45 46 47 48 49 50
021
ASUS44 KOHX 290410
RWROHX
MIDDLE TENNESSEE HOURLY WEATHER ROUNDUP
NATIONAL WEATHER SERVICE NASHVILLE TN
1100 PM CDT FRI APR 28 2017

NOTE: "FAIR" INDICATES FEW OR NO CLOUDS BELOW 12,000 FEET WITH
NO SIGNIFICANT WEATHER AND/OR OBSTRUCTIONS TO VISIBILITY.

* THESE REPORTS ARE NOT UNDER NWS QUALITY CONTROL AND MAY NOT
  REPORT WEATHER SUCH AS PRECIPITATION AND FOG.


TNZ005>011-023>034-057-059-062>066-078-080-290500
...NORTHERN MIDDLE TENNESSEE...

CITY           SKY/WX    TMP DP  RH WIND       PRES   REMARKS
CLARKSVILLE    CLEAR     77  67  71 S17G25    29.84F
CROSSVILLE     CLEAR     73  63  70 S8G21     30.05F
GALLATIN       PTCLDY    77  66  69 S6G14     29.94F
DICKSON        CLEAR     75  67  76 S12       29.90F
LEBANON        CLEAR     77  66  68 S12       29.91S
NASHVILLE      PTCLDY    78  67  68 S14       29.92F
PORTLAND       CLEAR     75  68  78 S14G22    29.89F
SMYRNA         CLEAR     77  68  73 S10       29.94R
SPARTA         CLEAR     75  64  69 S12G18    29.97S
SPRINGFIELD    CLOUDY    77  68  73 S10G18    29.87F
WEST NASHVILLE CLEAR     75  66  73 S12       29.90F
$$
TNZ056-058-060-061-075>077-079-093>097-290500
...SOUTHERN MIDDLE TENNESSEE...

CITY           SKY/WX    TMP DP  RH WIND       PRES   REMARKS
COLUMBIA       CLEAR     77  77 100 S13       29.93S
FAYETTEVILLE   CLOUDY    75  68  78 S12       30.01R
MCMINNVILLE    CLEAR     79  66  65 S6        30.00S
MURFREESBORO   CLEAR     78  65  64 S14       29.94R
SHELBYVILLE    CLEAR     77  70  78 S10       29.98S
TULLAHOMA      CLEAR     73  64  73 S10       30.01S
WINCHESTER     CLEAR     75  66  73 S6        30.02S
$$


...KEY TO REMARKS...
VSB - VISIBILITY IN MILES
WCI - WIND CHILL INDEX
HX  - HEAT INDEX





USA.gov is the U.S. government's official web portal to all federal, state and local government web resources and services.